Terminal Aerodrome Forecast
Issued by NWS

Home | Current Version | Previous Version | Text Only | Print | Product List | Glossary On
Versions: 1 2 3 4 5 6 7 8 9 10 11 12 13 14 15
000
FTUS45 KRIW 241100
TAFCPR
TAF
KCPR 241122Z 2412/2512 23012G18KT P6SM VCSH SCT110
     FM241500 23024G34KT P6SM FEW110 SCT150
     FM242200 24020G30KT P6SM VCSH BKN120
     FM250200 24015KT P6SM SCT120 BKN150
     FM250900 36010KT P6SM SCT150=

USA.gov is the U.S. government's official web portal to all federal, state and local government web resources and services.